Time,TemperatureF,DewpointF,PressureIn,WindDirection,WindDirectionDegrees,WindSpeedMPH,WindSpeedGustMPH,Humidity,HourlyPrecipIn,Conditions,Clouds,dailyrainin,SoftwareType,DateUTC
2013-08-03 00:00:00,81.7,75.2,30.00,WNW,284,0.0,0.0,81,0.00,,,0.00,meteohub,2013-08-03 04:00:00,
2013-08-03 00:01:00,81.7,75.2,29.99,WNW,284,0.0,0.0,81,0.00,,,0.00,meteohub,2013-08-03 04:01:00,
2013-08-03 00:05:00,81.7,74.8,29.99,WNW,284,0.0,0.0,80,0.00,,,0.00,meteohub,2013-08-03 04:05:00,
2013-08-03 00:06:00,81.7,74.8,29.99,WNW,284,0.0,0.0,80,0.00,,,0.00,meteohub,2013-08-03 04:06:00,
2013-08-03 00:08:00,81.7,75.2,29.99,WNW,284,0.0,0.0,81,0.00,,,0.00,meteohub,2013-08-03 04:08:00,
2013-08-03 00:13:00,81.7,75.2,29.99,WNW,284,0.0,1.0,81,0.00,,,0.00,meteohub,2013-08-03 04:13:00,
2013-08-03 00:18:00,81.5,75.0,29.99,WNW,284,0.0,1.0,81,0.00,,,0.00,meteohub,2013-08-03 04:18:00,
2013-08-03 00:23:00,81.3,74.8,29.99,WNW,284,0.0,0.0,81,0.00,,,0.00,meteohub,2013-08-03 04:23:00,
2013-08-03 00:28:00,81.1,75.2,29.99,WNW,284,0.0,0.0,82,0.00,,,0.00,meteohub,2013-08-03 04:28:00,
2013-08-03 00:34:00,81.1,75.2,29.99,WNW,284,0.0,1.0,82,0.00,,,0.00,meteohub,2013-08-03 04:34:00,
2013-08-03 00:39:00,81.1,75.6,30.00,WNW,284,0.0,1.0,83,0.00,,,0.00,meteohub,2013-08-03 04:39:00,
2013-08-03 00:44:00,81.0,75.4,30.00,WNW,284,0.0,0.0,83,0.00,,,0.00,meteohub,2013-08-03 04:44:00,
2013-08-03 00:49:00,81.0,75.4,30.00,WNW,284,0.0,0.0,83,0.00,,,0.00,meteohub,2013-08-03 04:49:00,
2013-08-03 00:54:00,80.8,75.2,30.00,WNW,284,0.0,0.0,83,0.00,,,0.00,meteohub,2013-08-03 04:54:00,
2013-08-03 00:59:00,80.8,75.2,30.00,WNW,284,0.0,0.0,83,0.00,,,0.00,meteohub,2013-08-03 04:59:00,
2013-08-03 01:04:00,80.6,75.0,30.00,WNW,284,0.0,0.0,83,0.00,,,0.00,meteohub,2013-08-03 05:04:00,
2013-08-03 01:09:00,80.4,75.2,30.00,WNW,284,0.0,0.0,84,0.00,,,0.00,meteohub,2013-08-03 05:09:00,
2013-08-03 01:14:00,80.4,75.2,30.00,WNW,284,0.0,0.0,84,0.00,,,0.00,meteohub,2013-08-03 05:14:00,
2013-08-03 01:20:00,80.2,75.0,30.00,WNW,284,0.0,0.0,84,0.00,,,0.00,meteohub,2013-08-03 05:20:00,
2013-08-03 01:25:00,80.2,75.0,30.00,WNW,284,0.0,0.0,84,0.00,,,0.00,meteohub,2013-08-03 05:25:00,
2013-08-03 01:30:00,80.2,75.0,30.00,WNW,284,0.0,0.0,84,0.00,,,0.00,meteohub,2013-08-03 05:30:00,
2013-08-03 01:35:00,80.2,75.4,30.00,WNW,284,0.0,0.0,85,0.00,,,0.00,meteohub,2013-08-03 05:35:00,
2013-08-03 01:40:00,80.2,75.4,30.00,WNW,284,0.0,0.0,85,0.00,,,0.00,meteohub,2013-08-03 05:40:00,
2013-08-03 01:45:00,80.2,75.4,30.00,WNW,284,0.0,0.0,85,0.00,,,0.00,meteohub,2013-08-03 05:45:00,
2013-08-03 01:50:00,80.1,75.2,30.00,WNW,284,0.0,0.0,85,0.00,,,0.00,meteohub,2013-08-03 05:50:00,
2013-08-03 01:55:00,80.1,75.6,30.00,WNW,284,0.0,0.0,86,0.00,,,0.00,meteohub,2013-08-03 05:55:00,
2013-08-03 02:00:00,80.1,75.6,30.00,WNW,284,0.0,0.0,86,0.00,,,0.00,meteohub,2013-08-03 06:00:00,
2013-08-03 02:06:00,80.1,75.6,30.00,WNW,284,0.0,0.0,86,0.00,,,0.00,meteohub,2013-08-03 06:06:00,
2013-08-03 02:11:00,80.1,75.6,29.99,WNW,284,0.0,0.0,86,0.00,,,0.00,meteohub,2013-08-03 06:11:00,
2013-08-03 02:16:00,80.1,75.6,29.99,WNW,284,0.0,0.0,86,0.00,,,0.00,meteohub,2013-08-03 06:16:00,
2013-08-03 02:21:00,80.1,75.6,30.00,WNW,284,0.0,0.0,86,0.00,,,0.00,meteohub,2013-08-03 06:21:00,
2013-08-03 02:26:00,80.1,75.6,29.99,WNW,284,0.0,1.0,86,0.00,,,0.00,meteohub,2013-08-03 06:26:00,
2013-08-03 02:31:00,80.2,75.7,29.99,WNW,284,0.0,1.0,86,0.00,,,0.00,meteohub,2013-08-03 06:31:00,
2013-08-03 02:36:00,80.1,75.6,29.99,WNW,284,0.0,0.0,86,0.00,,,0.00,meteohub,2013-08-03 06:36:00,
2013-08-03 02:41:00,80.1,75.6,29.99,WNW,284,0.0,0.0,86,0.00,,,0.00,meteohub,2013-08-03 06:41:00,
2013-08-03 02:46:00,80.1,75.6,29.99,WNW,284,0.0,0.0,86,0.00,,,0.00,meteohub,2013-08-03 06:46:00,
2013-08-03 02:51:00,79.9,75.7,29.99,WNW,284,0.0,0.0,87,0.00,,,0.00,meteohub,2013-08-03 06:51:00,
2013-08-03 02:56:00,79.9,75.7,29.99,WNW,284,0.0,0.0,87,0.00,,,0.00,meteohub,2013-08-03 06:56:00,
2013-08-03 03:02:00,79.7,75.6,29.99,WNW,284,0.0,0.0,87,0.00,,,0.00,meteohub,2013-08-03 07:02:00,
2013-08-03 03:07:00,79.5,75.4,29.99,WNW,284,0.0,0.0,87,0.00,,,0.00,meteohub,2013-08-03 07:07:00,
2013-08-03 03:12:00,79.5,75.6,29.99,WNW,284,0.0,0.0,88,0.00,,,0.00,meteohub,2013-08-03 07:12:00,
2013-08-03 03:17:00,79.7,75.6,29.99,WNW,284,0.0,0.0,87,0.00,,,0.00,meteohub,2013-08-03 07:17:00,
2013-08-03 03:22:00,79.9,75.7,29.99,WNW,284,0.0,1.0,87,0.00,,,0.00,meteohub,2013-08-03 07:22:00,
2013-08-03 03:27:00,79.9,75.7,29.99,WNW,284,0.0,1.0,87,0.00,,,0.00,meteohub,2013-08-03 07:27:00,
2013-08-03 03:32:00,80.1,75.6,29.98,WNW,284,0.0,1.0,86,0.00,,,0.00,meteohub,2013-08-03 07:32:00,
2013-08-03 03:37:00,80.1,75.6,29.98,WNW,284,0.0,0.0,86,0.00,,,0.00,meteohub,2013-08-03 07:37:00,
2013-08-03 03:42:00,80.1,75.6,29.98,WNW,284,0.0,0.0,86,0.00,,,0.00,meteohub,2013-08-03 07:42:00,
2013-08-03 03:47:00,80.1,75.2,29.98,WNW,284,0.0,1.0,85,0.00,,,0.00,meteohub,2013-08-03 07:47:00,
2013-08-03 03:52:00,80.1,74.8,29.98,WNW,284,0.0,1.0,84,0.00,,,0.00,meteohub,2013-08-03 07:52:00,
2013-08-03 03:57:00,80.2,74.7,29.98,WNW,284,2.0,2.0,83,0.00,,,0.00,meteohub,2013-08-03 07:57:00,
2013-08-03 04:03:00,80.4,74.5,29.97,WNW,284,0.0,3.0,82,0.00,,,0.00,meteohub,2013-08-03 08:03:00,
2013-08-03 04:08:00,80.6,74.7,29.97,WNW,284,0.0,3.0,82,0.00,,,0.00,meteohub,2013-08-03 08:08:00,
2013-08-03 04:13:00,80.8,74.5,29.97,WNW,284,0.0,2.0,81,0.00,,,0.00,meteohub,2013-08-03 08:13:00,
2013-08-03 04:18:00,80.8,74.5,29.97,WNW,284,0.0,2.0,81,0.00,,,0.00,meteohub,2013-08-03 08:18:00,
2013-08-03 04:23:00,80.8,74.5,29.97,WNW,284,0.0,2.0,81,0.00,,,0.00,meteohub,2013-08-03 08:23:00,
2013-08-03 04:28:00,80.6,74.3,29.97,WNW,284,0.0,2.0,81,0.00,,,0.00,meteohub,2013-08-03 08:28:00,
2013-08-03 04:34:00,80.6,74.3,29.97,WNW,284,0.0,1.0,81,0.00,,,0.00,meteohub,2013-08-03 08:34:00,
2013-08-03 04:39:00,80.4,74.1,29.97,WNW,284,0.0,1.0,81,0.00,,,0.00,meteohub,2013-08-03 08:39:00,
2013-08-03 04:44:00,80.2,74.3,29.96,WNW,284,0.0,1.0,82,0.00,,,0.00,meteohub,2013-08-03 08:44:00,
2013-08-03 04:49:00,80.2,74.3,29.96,WNW,284,0.0,0.0,82,0.00,,,0.00,meteohub,2013-08-03 08:49:00,
2013-08-03 04:54:00,80.2,74.3,29.96,WNW,284,0.0,0.0,82,0.00,,,0.00,meteohub,2013-08-03 08:54:00,
2013-08-03 04:59:00,80.2,74.3,29.96,WNW,284,0.0,0.0,82,0.00,,,0.00,meteohub,2013-08-03 08:59:00,
2013-08-03 05:04:00,80.2,73.9,29.97,WNW,284,0.0,2.0,81,0.00,,,0.00,meteohub,2013-08-03 09:04:00,
2013-08-03 05:09:00,80.1,74.1,29.97,WNW,284,0.0,2.0,82,0.00,,,0.00,meteohub,2013-08-03 09:09:00,
2013-08-03 05:14:00,79.9,73.9,29.97,WNW,284,0.0,1.0,82,0.00,,,0.00,meteohub,2013-08-03 09:14:00,
2013-08-03 05:19:00,79.7,73.8,29.97,WNW,284,0.0,0.0,82,0.00,,,0.00,meteohub,2013-08-03 09:19:00,
2013-08-03 05:25:00,79.5,73.9,29.97,WNW,284,0.0,0.0,83,0.00,,,0.00,meteohub,2013-08-03 09:25:00,
2013-08-03 05:30:00,79.5,73.9,29.98,WNW,284,0.0,0.0,83,0.00,,,0.00,meteohub,2013-08-03 09:30:00,
2013-08-03 05:35:00,79.3,73.8,29.98,WNW,284,0.0,0.0,83,0.00,,,0.00,meteohub,2013-08-03 09:35:00,
2013-08-03 05:40:00,79.2,73.6,29.98,WNW,284,0.0,0.0,83,0.00,,,0.00,meteohub,2013-08-03 09:40:00,
2013-08-03 05:45:00,79.0,73.4,29.98,WNW,284,0.0,0.0,83,0.00,,,0.00,meteohub,2013-08-03 09:45:00,
2013-08-03 05:50:00,78.8,73.6,29.98,WNW,284,0.0,0.0,84,0.00,,,0.00,meteohub,2013-08-03 09:50:00,
2013-08-03 05:55:00,78.6,73.4,29.98,WNW,284,0.0,0.0,84,0.00,,,0.00,meteohub,2013-08-03 09:55:00,
2013-08-03 06:01:00,78.4,73.9,29.99,WNW,284,0.0,0.0,86,0.00,,,0.00,meteohub,2013-08-03 10:01:00,
2013-08-03 06:06:00,78.3,74.1,29.99,WNW,284,0.0,0.0,87,0.00,,,0.00,meteohub,2013-08-03 10:06:00,
2013-08-03 06:11:00,78.1,73.9,29.99,WNW,284,0.0,0.0,87,0.00,,,0.00,meteohub,2013-08-03 10:11:00,
2013-08-03 06:16:00,77.7,73.6,29.99,WNW,284,0.0,0.0,87,0.00,,,0.00,meteohub,2013-08-03 10:16:00,
2013-08-03 06:21:00,77.7,73.9,29.99,WNW,284,0.0,0.0,88,0.00,,,0.00,meteohub,2013-08-03 10:21:00,
2013-08-03 06:26:00,77.5,73.8,29.99,WNW,284,0.0,0.0,88,0.00,,,0.00,meteohub,2013-08-03 10:26:00,
2013-08-03 06:31:00,77.4,73.6,29.99,WNW,284,0.0,0.0,88,0.00,,,0.00,meteohub,2013-08-03 10:31:00,
2013-08-03 06:36:00,77.4,73.9,29.99,WNW,284,0.0,0.0,89,0.00,,,0.00,meteohub,2013-08-03 10:36:00,
2013-08-03 06:41:00,77.4,73.9,29.99,WNW,284,0.0,0.0,89,0.00,,,0.00,meteohub,2013-08-03 10:41:00,
2013-08-03 06:46:00,77.2,73.8,29.99,WNW,284,0.0,0.0,89,0.00,,,0.00,meteohub,2013-08-03 10:46:00,
2013-08-03 06:52:00,77.2,73.9,29.99,WNW,284,0.0,0.0,90,0.00,,,0.00,meteohub,2013-08-03 10:52:00,
2013-08-03 06:57:00,77.0,73.8,29.99,WNW,284,0.0,0.0,90,0.00,,,0.00,meteohub,2013-08-03 10:57:00,
2013-08-03 07:02:00,77.2,73.9,29.99,WNW,284,0.0,0.0,90,0.00,,,0.00,meteohub,2013-08-03 11:02:00,
2013-08-03 07:07:00,77.2,73.8,29.99,WNW,284,0.0,0.0,89,0.00,,,0.00,meteohub,2013-08-03 11:07:00,
2013-08-03 07:12:00,77.4,73.9,30.00,WNW,284,0.0,0.0,89,0.00,,,0.00,meteohub,2013-08-03 11:12:00,
2013-08-03 07:17:00,77.4,73.9,30.00,WNW,284,0.0,0.0,89,0.00,,,0.00,meteohub,2013-08-03 11:17:00,
2013-08-03 07:22:00,77.4,73.9,30.00,WNW,284,0.0,0.0,89,0.00,,,0.00,meteohub,2013-08-03 11:22:00,
2013-08-03 07:28:00,77.5,74.1,30.00,WNW,284,0.0,0.0,89,0.00,,,0.00,meteohub,2013-08-03 11:28:00,
2013-08-03 07:33:00,77.5,74.1,30.00,WNW,284,0.0,0.0,89,0.00,,,0.00,meteohub,2013-08-03 11:33:00,
2013-08-03 07:38:00,77.5,74.3,30.01,WNW,284,0.0,0.0,90,0.00,,,0.00,meteohub,2013-08-03 11:38:00,
2013-08-03 07:43:00,77.5,74.3,30.01,WNW,284,0.0,0.0,90,0.00,,,0.00,meteohub,2013-08-03 11:43:00,
2013-08-03 07:48:00,77.7,74.5,30.01,WNW,284,0.0,0.0,90,0.00,,,0.00,meteohub,2013-08-03 11:48:00,
2013-08-03 07:53:00,77.9,74.7,30.01,WNW,284,0.0,0.0,90,0.00,,,0.00,meteohub,2013-08-03 11:53:00,
2013-08-03 07:58:00,78.3,75.0,30.01,WNW,284,0.0,0.0,90,0.00,,,0.00,meteohub,2013-08-03 11:58:00,
2013-08-03 08:04:00,78.4,75.6,30.01,WNW,284,0.0,0.0,91,0.00,,,0.00,meteohub,2013-08-03 12:04:00,
2013-08-03 08:09:00,79.0,75.7,30.02,WNW,284,0.0,0.0,90,0.00,,,0.00,meteohub,2013-08-03 12:09:00,
2013-08-03 08:14:00,79.7,76.1,30.02,WNW,284,1.0,0.0,89,0.00,,,0.00,meteohub,2013-08-03 12:14:00,
2013-08-03 08:19:00,80.4,76.1,30.02,WNW,284,1.0,0.0,87,0.00,,,0.00,meteohub,2013-08-03 12:19:00,
2013-08-03 08:24:00,81.5,75.9,30.02,WNW,284,1.0,1.0,83,0.00,,,0.00,meteohub,2013-08-03 12:24:00,
2013-08-03 08:29:00,82.8,76.3,30.02,WNW,284,0.0,1.0,81,0.00,,,0.00,meteohub,2013-08-03 12:29:00,
2013-08-03 08:34:00,83.8,76.6,30.02,WNW,284,0.0,2.0,79,0.00,,,0.00,meteohub,2013-08-03 12:34:00,
2013-08-03 08:39:00,84.9,76.1,30.02,WNW,284,1.0,2.0,75,0.00,,,0.00,meteohub,2013-08-03 12:39:00,
2013-08-03 08:44:00,86.0,76.8,30.03,WNW,284,0.0,2.0,74,0.00,,,0.00,meteohub,2013-08-03 12:44:00,
2013-08-03 08:50:00,87.1,77.0,30.03,WNW,284,3.0,3.0,72,0.00,,,0.00,meteohub,2013-08-03 12:50:00,
2013-08-03 08:55:00,87.4,76.8,30.03,WNW,284,0.0,4.0,71,0.00,,,0.00,meteohub,2013-08-03 12:55:00,
2013-08-03 09:00:00,88.2,76.6,30.03,WNW,284,0.0,5.0,69,0.00,,,0.00,meteohub,2013-08-03 13:00:00,
2013-08-03 09:05:00,88.5,76.6,30.03,WNW,284,2.0,5.0,68,0.00,,,0.00,meteohub,2013-08-03 13:05:00,
2013-08-03 09:10:00,88.9,77.4,30.03,WNW,284,0.0,5.0,69,0.00,,,0.00,meteohub,2013-08-03 13:10:00,
2013-08-03 09:16:00,89.2,75.9,30.03,WNW,284,2.0,4.0,65,0.00,,,0.00,meteohub,2013-08-03 13:16:00,
2013-08-03 09:21:00,89.4,76.1,30.03,WNW,284,2.0,5.0,65,0.00,,,0.00,meteohub,2013-08-03 13:21:00,
2013-08-03 09:26:00,88.9,76.5,30.02,WNW,284,1.0,5.0,67,0.00,,,0.00,meteohub,2013-08-03 13:26:00,
2013-08-03 09:31:00,88.9,76.5,30.02,WNW,284,3.0,5.0,67,0.00,,,0.00,meteohub,2013-08-03 13:31:00,
2013-08-03 09:36:00,89.4,76.6,30.02,WNW,284,2.0,5.0,66,0.00,,,0.00,meteohub,2013-08-03 13:36:00,
2013-08-03 09:41:00,90.0,75.7,30.02,WNW,284,2.0,6.0,63,0.00,,,0.00,meteohub,2013-08-03 13:41:00,
2013-08-03 09:46:00,90.1,75.9,30.02,WNW,284,3.0,6.0,63,0.00,,,0.00,meteohub,2013-08-03 13:46:00,
2013-08-03 09:52:00,90.1,75.4,30.02,WNW,284,3.0,6.0,62,0.00,,,0.00,meteohub,2013-08-03 13:52:00,
2013-08-03 09:57:00,90.3,76.5,30.03,WNW,284,1.0,6.0,64,0.00,,,0.00,meteohub,2013-08-03 13:57:00,
2013-08-03 10:02:00,91.0,76.6,30.03,WNW,284,1.0,6.0,63,0.00,,,0.00,meteohub,2013-08-03 14:02:00,
2013-08-03 10:08:00,91.6,75.7,30.02,WNW,284,1.0,6.0,60,0.00,,,0.00,meteohub,2013-08-03 14:08:00,
2013-08-03 10:13:00,91.4,76.1,30.02,WNW,284,1.0,6.0,61,0.00,,,0.00,meteohub,2013-08-03 14:13:00,
2013-08-03 10:18:00,91.2,75.9,30.02,WNW,284,3.0,6.0,61,0.00,,,0.00,meteohub,2013-08-03 14:18:00,
2013-08-03 10:23:00,91.0,76.3,30.02,WNW,284,2.0,6.0,62,0.00,,,0.00,meteohub,2013-08-03 14:23:00,
2013-08-03 10:28:00,91.4,76.1,30.03,West,267,3.0,6.0,61,0.00,,,0.00,meteohub,2013-08-03 14:28:00,
2013-08-03 10:33:00,91.4,76.1,30.03,NW,305,1.0,7.0,61,0.00,,,0.00,meteohub,2013-08-03 14:33:00,
2013-08-03 10:39:00,91.8,76.5,30.03,WNW,296,4.0,7.0,61,0.00,,,0.00,meteohub,2013-08-03 14:39:00,
2013-08-03 10:44:00,92.1,76.3,30.03,WNW,294,1.0,7.0,60,0.00,,,0.00,meteohub,2013-08-03 14:44:00,
2013-08-03 10:49:00,92.5,77.0,30.03,WNW,294,2.0,6.0,61,0.00,,,0.00,meteohub,2013-08-03 14:49:00,
2013-08-03 10:54:00,92.8,76.8,30.03,West,267,3.0,8.0,60,0.00,,,0.00,meteohub,2013-08-03 14:54:00,
2013-08-03 10:59:00,92.7,76.3,30.03,West,267,0.0,8.0,59,0.00,,,0.00,meteohub,2013-08-03 14:59:00,
2013-08-03 11:05:00,93.2,77.2,30.03,West,272,3.0,7.0,60,0.00,,,0.00,meteohub,2013-08-03 15:05:00,
2013-08-03 11:10:00,93.6,76.1,30.03,WSW,257,2.0,7.0,57,0.00,,,0.00,meteohub,2013-08-03 15:10:00,
2013-08-03 11:15:00,93.0,75.6,30.04,West,266,7.0,8.0,57,0.00,,,0.00,meteohub,2013-08-03 15:15:00,
2013-08-03 11:20:00,91.9,75.6,30.04,NNW,335,4.0,9.0,59,0.00,,,0.00,meteohub,2013-08-03 15:20:00,
2013-08-03 11:25:00,92.1,76.3,30.04,WNW,288,1.0,9.0,60,0.00,,,0.00,meteohub,2013-08-03 15:25:00,
2013-08-03 11:31:00,92.7,76.8,30.04,West,281,4.0,9.0,60,0.00,,,0.00,meteohub,2013-08-03 15:31:00,
2013-08-03 11:36:00,91.8,76.5,30.04,West,265,0.0,7.0,61,0.00,,,0.00,meteohub,2013-08-03 15:36:00,
2013-08-03 11:41:00,91.9,77.5,30.04,West,261,4.0,7.0,63,0.00,,,0.00,meteohub,2013-08-03 15:41:00,
2013-08-03 11:46:00,92.1,76.6,30.04,West,270,5.0,9.0,61,0.00,,,0.00,meteohub,2013-08-03 15:46:00,
2013-08-03 11:51:00,91.9,76.6,30.04,West,259,3.0,11.0,61,0.00,,,0.00,meteohub,2013-08-03 15:51:00,
2013-08-03 11:57:00,92.5,77.0,30.04,West,269,5.0,11.0,61,0.00,,,0.00,meteohub,2013-08-03 15:57:00,
2013-08-03 12:02:00,92.1,75.7,30.04,West,273,5.0,11.0,59,0.00,,,0.00,meteohub,2013-08-03 16:02:00,
2013-08-03 12:06:00,92.1,76.6,30.05,West,279,4.0,7.0,61,0.00,,,0.00,meteohub,2013-08-03 16:06:00,
2013-08-03 12:11:00,92.7,76.8,30.05,West,273,2.0,9.0,60,0.00,,,0.00,meteohub,2013-08-03 16:11:00,
2013-08-03 12:17:00,92.5,76.1,30.04,West,269,5.0,9.0,59,0.00,,,0.00,meteohub,2013-08-03 16:17:00,
2013-08-03 12:22:00,92.1,76.6,30.05,WNW,302,2.0,9.0,61,0.00,,,0.00,meteohub,2013-08-03 16:22:00,
2013-08-03 12:27:00,93.0,77.5,30.04,WSW,257,3.0,10.0,61,0.00,,,0.00,meteohub,2013-08-03 16:27:00,
2013-08-03 12:32:00,93.2,76.6,30.05,WNW,290,3.0,10.0,59,0.00,,,0.00,meteohub,2013-08-03 16:32:00,
2013-08-03 12:37:00,92.7,76.8,30.04,West,270,3.0,7.0,60,0.00,,,0.00,meteohub,2013-08-03 16:37:00,
2013-08-03 12:42:00,92.7,77.2,30.04,West,274,3.0,7.0,61,0.00,,,0.00,meteohub,2013-08-03 16:42:00,
2013-08-03 12:48:00,93.4,77.9,30.04,SW,224,4.0,7.0,61,0.00,,,0.00,meteohub,2013-08-03 16:48:00,
2013-08-03 12:53:00,93.9,77.4,30.04,WSW,252,2.0,7.0,59,0.00,,,0.00,meteohub,2013-08-03 16:53:00,
2013-08-03 12:58:00,93.6,77.0,30.05,WNW,292,4.0,7.0,59,0.00,,,0.00,meteohub,2013-08-03 16:58:00,
2013-08-03 13:03:00,93.0,77.0,30.04,WSW,254,5.0,9.0,60,0.00,,,0.00,meteohub,2013-08-03 17:03:00,
2013-08-03 13:08:00,91.8,76.5,30.04,WSW,257,8.0,9.0,61,0.00,,,0.00,meteohub,2013-08-03 17:08:00,
2013-08-03 13:13:00,92.1,76.6,30.04,West,268,6.0,10.0,61,0.00,,,0.00,meteohub,2013-08-03 17:13:00,
2013-08-03 13:18:00,92.8,75.9,30.04,West,269,7.0,10.0,58,0.00,,,0.00,meteohub,2013-08-03 17:18:00,
2013-08-03 13:23:00,93.0,76.6,30.04,WSW,242,5.0,10.0,59,0.00,,,0.00,meteohub,2013-08-03 17:23:00,
2013-08-03 13:29:00,92.5,76.6,30.04,West,265,2.0,10.0,60,0.00,,,0.00,meteohub,2013-08-03 17:29:00,
2013-08-03 13:34:00,92.5,76.6,30.04,West,259,2.0,10.0,60,0.00,,,0.00,meteohub,2013-08-03 17:34:00,
2013-08-03 13:39:00,93.4,76.8,30.04,West,262,3.0,10.0,59,0.00,,,0.00,meteohub,2013-08-03 17:39:00,
2013-08-03 13:44:00,94.3,77.7,30.04,West,260,6.0,11.0,59,0.00,,,0.00,meteohub,2013-08-03 17:44:00,
2013-08-03 13:49:00,94.3,77.2,30.04,West,273,3.0,11.0,58,0.00,,,0.00,meteohub,2013-08-03 17:49:00,
2013-08-03 13:54:00,94.5,77.4,30.04,SW,234,5.0,11.0,58,0.00,,,0.00,meteohub,2013-08-03 17:54:00,
2013-08-03 13:59:00,93.9,77.4,30.04,WSW,257,7.0,11.0,59,0.00,,,0.00,meteohub,2013-08-03 17:59:00,
2013-08-03 14:04:00,93.7,76.6,30.04,WSW,250,4.0,11.0,58,0.00,,,0.00,meteohub,2013-08-03 18:04:00,
2013-08-03 14:10:00,93.7,76.6,30.04,West,266,5.0,11.0,58,0.00,,,0.00,meteohub,2013-08-03 18:10:00,
2013-08-03 14:15:00,93.9,77.9,30.03,WSW,252,1.0,11.0,60,0.00,,,0.00,meteohub,2013-08-03 18:15:00,
2013-08-03 14:20:00,93.6,78.1,30.03,WNW,284,6.0,10.0,61,0.00,,,0.00,meteohub,2013-08-03 18:20:00,
2013-08-03 14:25:00,93.4,77.4,30.03,WSW,257,3.0,10.0,60,0.00,,,0.00,meteohub,2013-08-03 18:25:00,
2013-08-03 14:31:00,93.6,77.0,30.03,West,260,2.0,10.0,59,0.00,,,0.00,meteohub,2013-08-03 18:31:00,
2013-08-03 14:36:00,93.0,76.6,30.03,WNW,302,1.0,12.0,59,0.00,,,0.00,meteohub,2013-08-03 18:36:00,
2013-08-03 14:41:00,93.4,76.5,30.03,West,261,4.0,12.0,58,0.00,,,0.00,meteohub,2013-08-03 18:41:00,
2013-08-03 14:46:00,93.0,77.5,30.03,West,271,4.0,11.0,61,0.00,,,0.00,meteohub,2013-08-03 18:46:00,
2013-08-03 14:52:00,92.1,77.2,30.03,WSW,242,0.0,11.0,62,0.00,,,0.00,meteohub,2013-08-03 18:52:00,
2013-08-03 14:57:00,91.2,76.3,30.03,WNW,291,4.0,11.0,62,0.00,,,0.00,meteohub,2013-08-03 18:57:00,
2013-08-03 15:02:00,90.9,76.5,30.03,West,261,8.0,11.0,63,0.00,,,0.00,meteohub,2013-08-03 19:02:00,
2013-08-03 15:07:00,91.6,77.2,30.03,WSW,250,6.0,14.0,63,0.00,,,0.00,meteohub,2013-08-03 19:07:00,
2013-08-03 15:13:00,91.6,76.6,30.02,West,261,4.0,14.0,62,0.00,,,0.00,meteohub,2013-08-03 19:13:00,
2013-08-03 15:18:00,89.4,78.8,30.02,WSW,238,2.0,14.0,71,0.00,,,0.00,meteohub,2013-08-03 19:18:00,
2013-08-03 15:23:00,86.2,78.4,30.02,WSW,253,2.0,11.0,78,0.00,,,0.00,meteohub,2013-08-03 19:23:00,
2013-08-03 15:28:00,84.9,79.5,30.01,West,265,2.0,12.0,84,0.03,,,0.03,meteohub,2013-08-03 19:28:00,
2013-08-03 15:33:00,84.9,78.8,30.01,West,264,6.0,12.0,82,0.03,,,0.03,meteohub,2013-08-03 19:33:00,
2013-08-03 15:38:00,86.5,78.8,30.01,WSW,250,3.0,10.0,78,0.03,,,0.03,meteohub,2013-08-03 19:38:00,
2013-08-03 15:43:00,88.3,79.0,30.01,West,271,2.0,6.0,74,0.03,,,0.03,meteohub,2013-08-03 19:43:00,
2013-08-03 15:48:00,90.0,79.3,30.01,West,259,5.0,6.0,71,0.03,,,0.03,meteohub,2013-08-03 19:48:00,
2013-08-03 15:53:00,90.5,79.0,30.02,WSW,250,2.0,6.0,69,0.03,,,0.03,meteohub,2013-08-03 19:53:00,
2013-08-03 15:59:00,90.3,79.2,30.02,WSW,240,4.0,8.0,70,0.03,,,0.03,meteohub,2013-08-03 19:59:00,
2013-08-03 16:04:00,91.0,78.6,30.02,SSW,213,6.0,9.0,67,0.03,,,0.03,meteohub,2013-08-03 20:04:00,
2013-08-03 16:09:00,91.4,77.9,30.02,WSW,252,5.0,9.0,65,0.03,,,0.03,meteohub,2013-08-03 20:09:00,
2013-08-03 16:14:00,91.8,77.9,30.02,West,261,4.0,9.0,64,0.03,,,0.03,meteohub,2013-08-03 20:14:00,
2013-08-03 16:19:00,91.8,77.4,30.02,West,270,6.0,9.0,63,0.03,,,0.03,meteohub,2013-08-03 20:19:00,
2013-08-03 16:24:00,91.6,77.2,30.02,West,261,10.0,11.0,63,0.02,,,0.03,meteohub,2013-08-03 20:24:00,
2013-08-03 16:29:00,91.8,77.4,30.02,WSW,254,6.0,11.0,63,0.00,,,0.03,meteohub,2013-08-03 20:29:00,
2013-08-03 16:34:00,91.9,77.0,30.02,West,267,8.0,11.0,62,0.00,,,0.03,meteohub,2013-08-03 20:34:00,
2013-08-03 16:39:00,92.5,77.5,30.02,WSW,250,1.0,11.0,62,0.00,,,0.03,meteohub,2013-08-03 20:39:00,
2013-08-03 16:44:00,92.7,77.2,30.02,West,264,2.0,9.0,61,0.00,,,0.03,meteohub,2013-08-03 20:44:00,
2013-08-03 16:50:00,92.1,77.2,30.02,WNW,300,2.0,11.0,62,0.00,,,0.03,meteohub,2013-08-03 20:50:00,
2013-08-03 16:55:00,92.8,77.4,30.01,West,265,3.0,11.0,61,0.00,,,0.03,meteohub,2013-08-03 20:55:00,
2013-08-03 17:00:00,93.0,77.5,30.01,West,275,5.0,11.0,61,0.00,,,0.03,meteohub,2013-08-03 21:00:00,
2013-08-03 17:05:00,93.0,77.5,30.01,West,264,4.0,12.0,61,0.00,,,0.03,meteohub,2013-08-03 21:05:00,
2013-08-03 17:11:00,92.8,76.5,30.01,West,271,4.0,12.0,59,0.00,,,0.03,meteohub,2013-08-03 21:11:00,
2013-08-03 17:16:00,92.7,76.8,30.01,West,259,8.0,12.0,60,0.00,,,0.03,meteohub,2013-08-03 21:16:00,
2013-08-03 17:22:00,91.8,74.8,30.01,West,267,4.0,12.0,58,0.00,,,0.03,meteohub,2013-08-03 21:22:00,
2013-08-03 17:27:00,91.0,75.2,30.01,WSW,250,3.0,12.0,60,0.00,,,0.03,meteohub,2013-08-03 21:27:00,
2013-08-03 17:33:00,90.3,75.0,30.02,West,260,6.0,13.0,61,0.00,,,0.03,meteohub,2013-08-03 21:33:00,
2013-08-03 17:38:00,90.1,76.3,30.02,WSW,250,2.0,13.0,64,0.00,,,0.03,meteohub,2013-08-03 21:38:00,
2013-08-03 17:43:00,90.0,76.6,30.02,West,272,2.0,13.0,65,0.00,,,0.03,meteohub,2013-08-03 21:43:00,
2013-08-03 17:48:00,90.0,77.0,30.02,West,264,7.0,10.0,66,0.00,,,0.03,meteohub,2013-08-03 21:48:00,
2013-08-03 17:53:00,89.8,76.5,30.02,WSW,254,7.0,10.0,65,0.00,,,0.03,meteohub,2013-08-03 21:53:00,
2013-08-03 17:58:00,89.8,76.5,30.02,WSW,247,6.0,10.0,65,0.00,,,0.03,meteohub,2013-08-03 21:58:00,
2013-08-03 18:03:00,89.2,76.8,30.02,West,260,5.0,11.0,67,0.00,,,0.03,meteohub,2013-08-03 22:03:00,
2013-08-03 18:09:00,89.2,75.9,30.02,WSW,241,2.0,11.0,65,0.00,,,0.03,meteohub,2013-08-03 22:09:00,
2013-08-03 18:14:00,89.2,75.0,30.02,WSW,248,2.0,11.0,63,0.00,,,0.03,meteohub,2013-08-03 22:14:00,
2013-08-03 18:19:00,89.1,76.3,30.02,West,265,5.0,10.0,66,0.00,,,0.03,meteohub,2013-08-03 22:19:00,
2013-08-03 18:24:00,88.3,75.6,30.02,WSW,254,3.0,10.0,66,0.00,,,0.03,meteohub,2013-08-03 22:24:00,
2013-08-03 18:29:00,88.2,75.4,30.02,WSW,253,4.0,10.0,66,0.00,,,0.03,meteohub,2013-08-03 22:29:00,
2013-08-03 18:34:00,88.0,76.1,30.02,WSW,252,3.0,8.0,68,0.00,,,0.03,meteohub,2013-08-03 22:34:00,
2013-08-03 18:39:00,88.0,76.5,30.01,West,259,1.0,8.0,69,0.00,,,0.03,meteohub,2013-08-03 22:39:00,
2013-08-03 18:44:00,88.3,76.8,30.01,WSW,249,0.0,8.0,69,0.00,,,0.03,meteohub,2013-08-03 22:44:00,
2013-08-03 18:50:00,88.5,76.1,30.02,WSW,244,3.0,8.0,67,0.00,,,0.03,meteohub,2013-08-03 22:50:00,
2013-08-03 18:55:00,88.3,75.9,30.01,West,260,1.0,7.0,67,0.00,,,0.03,meteohub,2013-08-03 22:55:00,
2013-08-03 19:00:00,88.3,75.6,30.01,West,260,1.0,7.0,66,0.00,,,0.03,meteohub,2013-08-03 23:00:00,
2013-08-03 19:05:00,88.0,75.2,30.01,West,265,2.0,9.0,66,0.00,,,0.03,meteohub,2013-08-03 23:05:00,
2013-08-03 19:11:00,87.4,75.2,30.01,WSW,254,3.0,9.0,67,0.00,,,0.03,meteohub,2013-08-03 23:11:00,
2013-08-03 19:16:00,87.1,75.2,30.02,WSW,258,1.0,11.0,68,0.00,,,0.03,meteohub,2013-08-03 23:16:00,
2013-08-03 19:21:00,86.7,75.4,30.02,WNW,286,1.0,11.0,69,0.00,,,0.03,meteohub,2013-08-03 23:21:00,
2013-08-03 19:26:00,86.5,75.6,30.02,WNW,285,0.0,11.0,70,0.00,,,0.03,meteohub,2013-08-03 23:26:00,
2013-08-03 19:31:00,86.4,75.4,30.02,West,281,5.0,6.0,70,0.00,,,0.03,meteohub,2013-08-03 23:31:00,
2013-08-03 19:36:00,86.2,75.2,30.02,West,281,1.0,6.0,70,0.00,,,0.03,meteohub,2013-08-03 23:36:00,
2013-08-03 19:42:00,86.2,75.2,30.02,West,278,3.0,6.0,70,0.00,,,0.03,meteohub,2013-08-03 23:42:00,
2013-08-03 19:47:00,85.8,75.4,30.02,West,277,2.0,6.0,71,0.00,,,0.03,meteohub,2013-08-03 23:47:00,
2013-08-03 19:52:00,85.6,75.2,30.03,West,277,2.0,6.0,71,0.00,,,0.03,meteohub,2013-08-03 23:52:00,
2013-08-03 19:57:00,85.5,75.4,30.02,West,277,4.0,6.0,72,0.00,,,0.03,meteohub,2013-08-03 23:57:00,
2013-08-03 20:02:00,85.3,75.2,30.02,West,277,2.0,6.0,72,0.00,,,0.03,meteohub,2013-08-04 00:02:00,
2013-08-03 20:07:00,85.1,75.4,30.02,West,277,0.0,6.0,73,0.00,,,0.03,meteohub,2013-08-04 00:07:00,
2013-08-03 20:12:00,84.9,75.2,30.02,West,276,1.0,6.0,73,0.00,,,0.03,meteohub,2013-08-04 00:12:00,
2013-08-03 20:17:00,84.9,75.2,30.03,West,276,0.0,6.0,73,0.00,,,0.03,meteohub,2013-08-04 00:17:00,
2013-08-03 20:22:00,84.7,75.2,30.02,West,276,1.0,6.0,73,0.00,,,0.03,meteohub,2013-08-04 00:22:00,
2013-08-03 20:28:00,84.7,75.6,30.03,West,276,0.0,6.0,74,0.00,,,0.03,meteohub,2013-08-04 00:28:00,
2013-08-03 20:33:00,84.6,75.7,30.03,West,276,0.0,4.0,75,0.00,,,0.03,meteohub,2013-08-04 00:33:00,
2013-08-03 20:38:00,84.4,75.6,30.03,West,276,0.0,4.0,75,0.00,,,0.03,meteohub,2013-08-04 00:38:00,
2013-08-03 20:43:00,84.4,75.9,30.03,West,276,3.0,3.0,76,0.00,,,0.03,meteohub,2013-08-04 00:43:00,
2013-08-03 20:48:00,84.4,75.6,30.03,West,276,4.0,4.0,75,0.00,,,0.03,meteohub,2013-08-04 00:48:00,
2013-08-03 20:53:00,84.4,75.6,30.03,West,276,2.0,5.0,75,0.00,,,0.03,meteohub,2013-08-04 00:53:00,
2013-08-03 20:58:00,84.2,73.8,30.03,West,276,1.0,5.0,71,0.00,,,0.03,meteohub,2013-08-04 00:58:00,
2013-08-03 21:04:00,84.2,74.1,30.03,West,276,2.0,6.0,72,0.00,,,0.03,meteohub,2013-08-04 01:04:00,
2013-08-03 21:09:00,84.4,74.8,30.03,West,276,2.0,6.0,73,0.00,,,0.03,meteohub,2013-08-04 01:09:00,
2013-08-03 21:14:00,84.2,74.7,30.03,West,276,0.0,6.0,73,0.00,,,0.03,meteohub,2013-08-04 01:14:00,
2013-08-03 21:19:00,84.0,74.8,30.03,West,276,0.0,4.0,74,0.00,,,0.03,meteohub,2013-08-04 01:19:00,
2013-08-03 21:24:00,84.0,74.8,30.04,West,276,0.0,4.0,74,0.00,,,0.03,meteohub,2013-08-04 01:24:00,
2013-08-03 21:30:00,84.0,75.2,30.04,West,276,1.0,3.0,75,0.00,,,0.03,meteohub,2013-08-04 01:30:00,
2013-08-03 21:35:00,83.8,75.0,30.04,West,276,2.0,3.0,75,0.00,,,0.03,meteohub,2013-08-04 01:35:00,
2013-08-03 21:40:00,83.8,75.0,30.05,West,276,0.0,3.0,75,0.00,,,0.03,meteohub,2013-08-04 01:40:00,
2013-08-03 21:45:00,83.8,75.4,30.05,West,276,0.0,3.0,76,0.00,,,0.03,meteohub,2013-08-04 01:45:00,
2013-08-03 21:50:00,83.7,75.2,30.05,West,276,0.0,3.0,76,0.00,,,0.03,meteohub,2013-08-04 01:50:00,
2013-08-03 21:55:00,83.7,74.8,30.05,West,276,1.0,3.0,75,0.00,,,0.03,meteohub,2013-08-04 01:55:00,
2013-08-03 22:00:00,83.7,74.8,30.05,West,276,0.0,4.0,75,0.00,,,0.03,meteohub,2013-08-04 02:00:00,
2013-08-03 22:06:00,83.8,75.0,30.05,West,276,1.0,5.0,75,0.00,,,0.03,meteohub,2013-08-04 02:06:00,
2013-08-03 22:11:00,83.8,75.0,30.05,West,276,2.0,5.0,75,0.00,,,0.03,meteohub,2013-08-04 02:11:00,
2013-08-03 22:16:00,83.8,75.4,30.05,West,276,2.0,5.0,76,0.00,,,0.03,meteohub,2013-08-04 02:16:00,
2013-08-03 22:21:00,83.8,75.4,30.05,West,276,3.0,5.0,76,0.00,,,0.03,meteohub,2013-08-04 02:21:00,
2013-08-03 22:26:00,83.8,75.4,30.05,West,276,0.0,5.0,76,0.00,,,0.03,meteohub,2013-08-04 02:26:00,
2013-08-03 22:31:00,83.8,75.4,30.05,West,276,0.0,5.0,76,0.00,,,0.03,meteohub,2013-08-04 02:31:00,
2013-08-03 22:37:00,83.7,75.7,30.05,West,276,0.0,5.0,77,0.00,,,0.03,meteohub,2013-08-04 02:37:00,
2013-08-03 22:42:00,83.7,75.7,30.06,West,276,0.0,4.0,77,0.00,,,0.03,meteohub,2013-08-04 02:42:00,
2013-08-03 22:47:00,83.7,75.7,30.06,West,276,1.0,3.0,77,0.00,,,0.03,meteohub,2013-08-04 02:47:00,
2013-08-03 22:53:00,83.7,76.1,30.06,West,276,1.0,4.0,78,0.00,,,0.03,meteohub,2013-08-04 02:53:00,
2013-08-03 22:58:00,83.8,76.3,30.06,West,276,3.0,4.0,78,0.00,,,0.03,meteohub,2013-08-04 02:58:00,
2013-08-03 23:03:00,83.8,76.3,30.06,West,276,1.0,5.0,78,0.00,,,0.03,meteohub,2013-08-04 03:03:00,
2013-08-03 23:08:00,83.8,76.3,30.06,West,276,0.0,5.0,78,0.00,,,0.03,meteohub,2013-08-04 03:08:00,
2013-08-03 23:14:00,83.8,75.9,30.06,West,276,3.0,5.0,77,0.00,,,0.03,meteohub,2013-08-04 03:14:00,
2013-08-03 23:19:00,83.8,75.9,30.06,West,276,0.0,5.0,77,0.00,,,0.03,meteohub,2013-08-04 03:19:00,
2013-08-03 23:24:00,83.8,75.9,30.06,West,276,3.0,5.0,77,0.00,,,0.03,meteohub,2013-08-04 03:24:00,
2013-08-03 23:29:00,83.8,75.9,30.06,West,276,0.0,5.0,77,0.00,,,0.03,meteohub,2013-08-04 03:29:00,
2013-08-03 23:34:00,83.8,75.9,30.06,West,276,2.0,5.0,77,0.00,,,0.03,meteohub,2013-08-04 03:34:00,
2013-08-03 23:39:00,83.8,75.9,30.05,West,275,2.0,6.0,77,0.00,,,0.03,meteohub,2013-08-04 03:39:00,
2013-08-03 23:45:00,83.8,75.9,30.05,West,276,1.0,6.0,77,0.00,,,0.03,meteohub,2013-08-04 03:45:00,
2013-08-03 23:50:00,83.8,75.9,30.05,West,275,0.0,6.0,77,0.00,,,0.03,meteohub,2013-08-04 03:50:00,
2013-08-03 23:55:00,83.8,75.9,30.05,West,275,1.0,5.0,77,0.00,,,0.03,meteohub,2013-08-04 03:55:00,